TimeMST,TemperatureF,Dew PointF,Humidity,Sea Level PressureIn,VisibilityMPH,Wind Direction,Wind SpeedMPH,Gust SpeedMPH,PrecipitationIn,Events,Conditions,WindDirDegrees,DateUTC
12:53 AM,9.0,3.9,80,30.46,7.0,Calm,Calm,-,N/A,,Clear,0,2014-01-22 07:53:00
1:53 AM,8.1,3.9,83,30.43,10.0,ENE,4.6,-,N/A,,Clear,70,2014-01-22 08:53:00
2:53 AM,6.1,1.9,83,30.42,10.0,NE,3.5,-,N/A,,Clear,50,2014-01-22 09:53:00
3:00 AM,6.1,3.0,87,30.25,10.0,NE,3.5,-,N/A,,Partly Cloudy,40,2014-01-22 10:00:00
3:53 AM,7.0,3.0,84,30.40,10.0,NE,5.8,-,N/A,,Clear,50,2014-01-22 10:53:00
4:00 AM,7.0,3.0,84,30.24,10.0,North,4.6,-,N/A,,Partly Cloudy,10,2014-01-22 11:00:00
4:53 AM,6.1,1.9,83,30.40,10.0,East,5.8,-,N/A,,Clear,80,2014-01-22 11:53:00
5:53 AM,5.0,1.0,84,30.42,10.0,NE,3.5,-,N/A,,Clear,40,2014-01-22 12:53:00
6:00 AM,5.0,1.0,84,30.21,10.0,Calm,Calm,-,N/A,,Partly Cloudy,0,2014-01-22 13:00:00
6:53 AM,3.0,-0.0,87,30.43,10.0,NNE,3.5,-,N/A,,Clear,30,2014-01-22 13:53:00
7:53 AM,5.0,1.0,84,30.43,10.0,Calm,Calm,-,N/A,,Clear,0,2014-01-22 14:53:00
8:53 AM,10.0,3.9,76,30.41,10.0,NNE,3.5,-,N/A,,Clear,30,2014-01-22 15:53:00
9:53 AM,10.0,5.0,80,30.39,10.0,East,3.5,-,N/A,,Clear,80,2014-01-22 16:53:00
10:53 AM,16.0,7.0,68,30.38,10.0,NE,3.5,-,N/A,,Partly Cloudy,50,2014-01-22 17:53:00
11:53 AM,21.0,10.0,63,30.33,10.0,NNE,4.6,-,N/A,,Clear,30,2014-01-22 18:53:00
12:53 PM,24.1,12.0,60,30.30,10.0,Calm,Calm,-,N/A,,Scattered Clouds,0,2014-01-22 19:53:00
1:53 PM,25.0,12.9,60,30.29,10.0,NE,3.5,-,N/A,,Overcast,40,2014-01-22 20:53:00
2:53 PM,30.9,14.0,50,30.27,10.0,NE,3.5,-,N/A,,Mostly Cloudy,50,2014-01-22 21:53:00
3:53 PM,28.0,17.1,63,30.28,9.0,NE,4.6,-,0.00,Snow,Light Snow,40,2014-01-22 22:53:00
4:42 PM,26.1,19.9,78,30.13,2.5,NE,6.9,-,0.00,Snow,Light Snow,50,2014-01-22 23:42:00
4:51 PM,26.6,21.2,80,30.14,1.5,NE,5.8,-,0.00,Snow,Light Snow,40,2014-01-22 23:51:00
4:53 PM,26.1,21.9,84,30.32,1.5,NE,4.6,-,0.00,Snow,Light Snow,50,2014-01-22 23:53:00
5:12 PM,25.0,23.0,92,30.14,2.5,ENE,4.6,-,0.00,Snow,Light Snow,60,2014-01-23 00:12:00
5:19 PM,25.0,23.0,92,30.14,4.0,ENE,4.6,-,0.00,Snow,Light Snow,60,2014-01-23 00:19:00
5:53 PM,25.0,23.0,92,30.34,10.0,Calm,Calm,-,0.00,,Overcast,0,2014-01-23 00:53:00
6:53 PM,24.1,21.9,91,30.35,10.0,Calm,Calm,-,N/A,,Mostly Cloudy,0,2014-01-23 01:53:00
7:53 PM,21.9,21.0,96,30.36,9.0,Calm,Calm,-,N/A,,Overcast,0,2014-01-23 02:53:00
8:53 PM,23.0,21.0,92,30.35,8.0,Calm,Calm,-,N/A,,Overcast,0,2014-01-23 03:53:00
9:53 PM,21.0,19.0,92,30.38,7.0,Calm,Calm,-,N/A,,Clear,0,2014-01-23 04:53:00
10:53 PM,19.0,18.0,96,30.38,5.0,NNE,3.5,-,N/A,,Clear,30,2014-01-23 05:53:00
11:53 PM,14.0,12.0,92,30.41,6.0,Calm,Calm,-,N/A,,Clear,0,2014-01-23 06:53:00